User: anonymous   Login
Location: Hepcat Sky Observatory
(29.9800°N, 95.6500°W)
Time: 07:56:12
(UTC-05:00)
Language:

ALOS - Orbit

View from above orbital plane
View from above orbital plane
View from above satellite
View from above satellite

Ground track
Ground track

The orbit data is extracted from the following two-line orbital elements,

1 28931U 06002A   15088.53660227  .00001117  00000-0  23296-3 0  9999
2 28931 097.9435 141.0921 0001680 059.9971 300.1399 14.61751181489006
Epoch (UTC): 29 March 2015 12:52:42
Eccentricity: 0.0001680
inclination: 97.9435°
perigee height: 686 km
apogee height: 689 km
right ascension of ascending node: 141.0921°
argument of perigee: 59.9971°
revolutions per day: 14.61751181
mean anomaly at epoch: 300.1399°
orbit number at epoch: 48900

The dashed part of the orbit path shows where the satellite is in the earth's shadow,  

DLR